This is the latest recevied weather packets stored in our database for station/object W0CHP-13. If no packets are shown the sender has not sent any weather packets the latest 10 day(s).
| Time | Temp. | Humidity | Pressure | Rain* | Wind** | Luminosity | Snow |
|---|---|---|---|---|---|---|---|
| 1777599438 | 8.33° C | 43% | 1014.8 hPa | 0 mm | - | 0 W/m² | - |
| 1777598836 | 8.33° C | 43% | 1014.8 hPa | 0 mm | - | 0 W/m² | - |
| 1777598238 | 8.89° C | 42% | 1014.6 hPa | 0 mm | - | 1 W/m² | - |
| 1777597636 | 8.89° C | 42% | 1014.4 hPa | 0 mm | - | 3 W/m² | - |
| 1777597038 | 8.89° C | 42% | 1014.6 hPa | 0 mm | - | 6 W/m² | - |
| 1777596437 | 8.89° C | 41% | 1014.4 hPa | 0 mm | - | 10 W/m² | - |
| 1777595835 | 8.89° C | 42% | 1014.3 hPa | 0 mm | - | 17 W/m² | - |
| 1777595237 | 8.89° C | 40% | 1014.4 hPa | 0 mm | - | 20 W/m² | - |
| 1777594635 | 9.44° C | 40% | 1014.4 hPa | 0 mm | - | 26 W/m² | - |
| 1777594038 | 10° C | 40% | 1014.1 hPa | 0 mm | - | 32 W/m² | - |
| 1777593436 | 10° C | 38% | 1014.1 hPa | 0 mm | - | 46 W/m² | - |
| 1777592838 | 10.56° C | 37% | 1014.1 hPa | 0 mm | - | 71 W/m² | - |
| 1777592236 | 10.56° C | 39% | 1014.1 hPa | 0 mm | - | 85 W/m² | - |
| 1777591639 | 11.11° C | 39% | 1013.7 hPa | 0 mm | - | 97 W/m² | - |
| 1777591036 | 11.11° C | 37% | 1013.6 hPa | 0 mm | - | 68 W/m² | - |
| 1777590439 | 11.11° C | 37% | 1013.7 hPa | 0 mm | - | 204 W/m² | - |
| 1777589837 | 11.67° C | 39% | 1013.7 hPa | 0 mm | - | 261 W/m² | - |
| 1777589235 | 11.67° C | 36% | 1013.7 hPa | 0 mm | - | 134 W/m² | - |
| 1777588637 | 11.67° C | 35% | 1013.6 hPa | 0 mm | - | 318 W/m² | - |
| 1777588036 | 11.67° C | 38% | 1013.6 hPa | 0 mm | - | 140 W/m² | - |
| 1777587438 | 11.67° C | 38% | 1013.5 hPa | 0 mm | - | 94 W/m² | - |
| 1777586836 | 11.67° C | 37% | 1013.5 hPa | 0 mm | - | 91 W/m² | - |
| 1777586238 | 12.78° C | 35% | 1013.4 hPa | 0 mm | - | 127 W/m² | - |
| 1777585636 | 13.33° C | 36% | 1013.4 hPa | 0 mm | - | 170 W/m² | - |
| 1777585039 | 12.78° C | 37% | 1013.4 hPa | 0 mm | - | 533 W/m² | - |
* Rain latest hour (hover to see other rain measurements)
** Current wind speed in m/s (hover to see current wind gust speed)